This demonstration page uses our WeatherBlox Daily Observations layout. Learn more.

Left ArrowRight Arrow

Hourly Observations for September 12, 2015

Temp ( °F °C ) Dew Point ( °F °C ) Humidity (%) Winds ( mph kmh ) Pressure ( in mb ) Visibility ( mi km ) Precip ( " mm )
12:53 am 00:53 Clear 75 23.9 44 6.7 33 33 Calm 29.84 1011 10 16 0.00 0.00
1:53 am 01:53 Clear 75 23.9 45 7.2 34 34 NNW 5 7 29.84 1011 10 16 0.00 0.00
2:53 am 02:53 Clear 70 21.1 42 5.6 37 37 Calm 29.84 1011 10 16 0.00 0.00
3:53 am 03:53 Clear 70 21.1 44 6.7 39 39 N 3 6 29.84 1011 10 16 0.00 0.00
4:53 am 04:53 Clear 69 20.6 47 8.3 45 45 Calm 29.85 1011 10 16 0.00 0.00
5:53 am 05:53 Clear 68 20 44 6.7 42 42 Calm 29.85 1011 10 16 0.00 0.00
6:53 am 06:53 Sunny 68 20 47 8.3 47 47 Calm 29.86 1011 10 16 0.00 0.00
7:53 am 07:53 Sunny 72 22.2 48 8.9 43 43 Calm 29.87 1012 10 16 0.00 0.00
8:53 am 08:53 Sunny 76 24.4 47 8.3 36 36 undefined N/A 29.88 1012 10 16 0.00 0.00
9:53 am 09:53 Sunny 81 27.2 48 8.9 32 32 NNW 3 6 29.87 1012 10 16 0.00 0.00
10:53 am 10:53 Sunny 87 30.6 44 6.7 22 22 Calm 29.87 1012 10 16 0.00 0.00
11:53 am 11:53 Sunny 90 32.2 46 7.8 22 22 Calm 29.85 1011 10 16 0.00 0.00
12:53 pm 12:53 Sunny 96 35.6 40 4.4 14 14 ENE 6 9 29.82 1010 10 16 0.00 0.00
1:53 pm 13:53 Sunny 96 35.6 47 8.3 19 19 S 7 11 29.80 1009 10 16 0.00 0.00
2:53 pm 14:53 Sunny 99 37.2 40 4.4 13 13 SSE 10 17 29.78 1008 10 16 0.00 0.00
3:53 pm 15:53 Sunny 95 35 44 6.7 17 17 S 9 15 29.77 1008 10 16 0.00 0.00
4:53 pm 16:53 Sunny 92 33.3 47 8.3 21 21 SSE 13 20 29.77 1008 10 16 0.00 0.00
5:53 pm 17:53 Sunny 90 32.2 46 7.8 22 22 S 8 13 29.78 1008 10 16 0.00 0.00
6:53 pm 18:53 Sunny 88 31.1 47 8.3 24 24 S 9 15 29.79 1009 10 16 0.00 0.00
7:53 pm 19:53 Clear 84 28.9 52 11.1 33 33 SE 8 13 29.82 1010 10 16 0.00 0.00
8:53 pm 20:53 Clear 82 27.8 54 12.2 38 38 NNE 3 6 29.84 1010 8 13 0.00 0.00
9:53 pm 21:53 Clear 79 26.1 54 12.2 42 42 Calm 29.86 1011 9 14 0.00 0.00
10:53 pm 22:53 Clear 75 23.9 53 11.7 46 46 NNE 6 9 29.86 1011 9 14 0.00 0.00
11:53 pm 23:53 Clear 74 23.3 55 12.8 52 52 W 3 6 29.86 1011 9 14 0.00 0.00

Powered by AerisWeather